• In Portugal
  • List of Countries
  • For 7 days
  • Water Temperature
  • Satellite Maps
  • Weather Map
  • Weather Widgets
  • user-avatar
    Login

    Hourly Weather Novoazovsk

    Today, 16 October, Tuesday

    Time Temperature Precipitation Wind Pressure Humidity
    00:00 +17°C° 0 mm 4 mps 768 mmHg 59%
    01:00 +17°C° 0 mm 4 mps 768 mmHg 61%
    02:00 +17°C° 0 mm 4 mps 768 mmHg 63%
    03:00 +17°C° 0 mm 3 mps 768 mmHg 65%
    04:00 +16°C° 0 mm 3 mps 768 mmHg 67%
    05:00 +15°C° 0 mm 4 mps 768 mmHg 69%
    06:00 +15°C° 0 mm 4 mps 768 mmHg 71%
    07:00 +15°C° 0 mm 4 mps 768 mmHg 69%
    08:00 +17°C° 0 mm 4 mps 768 mmHg 66%
    09:00 +17°C° 0 mm 5 mps 769 mmHg 64%
    10:00 +20°C° 0 mm 5 mps 768 mmHg 59%
    11:00 +21°C° 0 mm 5 mps 768 mmHg 54%
    12:00 +23°C° 0 mm 5 mps 768 mmHg 49%
    13:00 +23°C° 0 mm 5 mps 768 mmHg 47%
    14:00 +25°C° 0 mm 5 mps 768 mmHg 46%
    15:00 +25°C° 0 mm 5 mps 767 mmHg 44%
    16:00 +23°C° 0 mm 5 mps 767 mmHg 47%
    17:00 +22°C° 0 mm 4 mps 767 mmHg 51%
    18:00 +21°C° 0 mm 4 mps 767 mmHg 54%
    19:00 +20°C° 0 mm 4 mps 767 mmHg 56%
    20:00 +20°C° 0 mm 4 mps 767 mmHg 59%
    21:00 +19°C° 0 mm 5 mps 767 mmHg 61%
    22:00 +17°C° 0 mm 5 mps 767 mmHg 63%
    23:00 +17°C° 0 mm 5 mps 767 mmHg 66%

    Tomorrow, 17 October, Wednesday

    Time Temperature Precipitation Wind Pressure Humidity
    00:00 +16°C° 0 mm 5 mps 767 mmHg 68%
    01:00 +16°C° 0 mm 5 mps 767 mmHg 70%
    02:00 +15°C° 0 mm 5 mps 767 mmHg 72%
    03:00 +15°C° 0 mm 5 mps 767 mmHg 75%
    04:00 +15°C° 0 mm 5 mps 767 mmHg 76%
    05:00 +14°C° 0 mm 5 mps 767 mmHg 78%
    06:00 +14°C° 0 mm 5 mps 767 mmHg 80%
    07:00 +15°C° 0 mm 5 mps 767 mmHg 75%
    08:00 +16°C° 0 mm 6 mps 767 mmHg 71%
    09:00 +16°C° 0 mm 6 mps 767 mmHg 67%
    10:00 +19°C° 0 mm 6 mps 767 mmHg 60%
    11:00 +20°C° 0 mm 6 mps 767 mmHg 54%
    12:00 +22°C° 0 mm 6 mps 766 mmHg 48%
    13:00 +22°C° 0 mm 6 mps 766 mmHg 45%
    14:00 +23°C° 0 mm 6 mps 766 mmHg 42%
    15:00 +23°C° 0 mm 6 mps 766 mmHg 40%
    16:00 +22°C° 0 mm 5 mps 765 mmHg 42%
    17:00 +21°C° 0 mm 5 mps 765 mmHg 44%
    18:00 +20°C° 0 mm 4 mps 765 mmHg 47%
    19:00 +20°C° 0 mm 4 mps 765 mmHg 49%
    20:00 +19°C° 0 mm 5 mps 765 mmHg 50%
    21:00 +17°C° 0 mm 5 mps 766 mmHg 52%
    22:00 +17°C° 0 mm 5 mps 765 mmHg 54%
    23:00 +17°C° 0 mm 4 mps 765 mmHg 56%

    Day after tomorrow, 18 October, Thursday

    Time Temperature Precipitation Wind Pressure Humidity
    00:00 +17°C° 0 mm 4 mps 765 mmHg 58%
    01:00 +15°C° 0 mm 4 mps 765 mmHg 60%
    02:00 +15°C° 0 mm 4 mps 765 mmHg 61%
    03:00 +14°C° 0 mm 4 mps 765 mmHg 63%
    04:00 +14°C° 0 mm 4 mps 765 mmHg 64%
    05:00 +14°C° 0 mm 4 mps 765 mmHg 65%
    06:00 +14°C° 0 mm 5 mps 765 mmHg 66%
    07:00 +15°C° 0 mm 5 mps 765 mmHg 63%
    08:00 +15°C° 0 mm 5 mps 765 mmHg 60%
    09:00 +16°C° 0 mm 6 mps 765 mmHg 56%
    10:00 +19°C° 0 mm 6 mps 765 mmHg 51%
    11:00 +20°C° 0 mm 6 mps 765 mmHg 46%
    12:00 +22°C° 0 mm 6 mps 765 mmHg 41%
    13:00 +23°C° 0 mm 6 mps 764 mmHg 39%
    14:00 +23°C° 0 mm 6 mps 764 mmHg 37%
    15:00 +24°C° 0 mm 6 mps 764 mmHg 35%
    16:00 +23°C° 0 mm 6 mps 764 mmHg 37%
    17:00 +22°C° 0 mm 5 mps 763 mmHg 39%
    18:00 +20°C° 0 mm 5 mps 763 mmHg 42%
    19:00 +20°C° 0 mm 5 mps 763 mmHg 43%
    20:00 +19°C° 0 mm 5 mps 763 mmHg 44%
    21:00 +19°C° 0 mm 5 mps 764 mmHg 46%
    22:00 +17°C° 0 mm 5 mps 763 mmHg 48%
    23:00 +16°C° 0 mm 5 mps 763 mmHg 49%

    19 October, Friday

    Time Temperature Precipitation Wind Pressure Humidity
    00:00 +16°C° 0 mm 5 mps 763 mmHg 51%
    01:00 +15°C° 0 mm 5 mps 763 mmHg 52%
    02:00 +15°C° 0 mm 5 mps 763 mmHg 54%
    03:00 +15°C° 0 mm 6 mps 763 mmHg 55%
    04:00 +14°C° 0 mm 6 mps 763 mmHg 57%
    05:00 +14°C° 0 mm 6 mps 763 mmHg 58%
    06:00 +13°C° 0 mm 6 mps 763 mmHg 60%
    07:00 +14°C° 0 mm 7 mps 763 mmHg 59%
    08:00 +15°C° 0 mm 7 mps 763 mmHg 58%
    09:00 +15°C° 0 mm 7 mps 763 mmHg 57%
    10:00 +17°C° 0 mm 7 mps 762 mmHg 53%
    11:00 +18°C° 0 mm 7 mps 762 mmHg 50%
    12:00 +21°C° 0 mm 7 mps 762 mmHg 46%
    13:00 +21°C° 0 mm 6 mps 762 mmHg 44%
    14:00 +22°C° 0 mm 6 mps 761 mmHg 42%
    15:00 +22°C° 0 mm 6 mps 761 mmHg 40%
    16:00 +21°C° 0 mm 6 mps 761 mmHg 43%
    17:00 +21°C° 0 mm 5 mps 761 mmHg 46%
    18:00 +20°C° 0 mm 4 mps 761 mmHg 49%
    19:00 +19°C° 0 mm 5 mps 761 mmHg 51%
    20:00 +17°C° 0 mm 5 mps 760 mmHg 54%
    21:00 +17°C° 0 mm 5 mps 760 mmHg 57%
    22:00 +16°C° 0 mm 5 mps 760 mmHg 61%
    23:00 +17°C° 0 mm 4 mps 760 mmHg 65%

    20 October, Saturday

    Time Temperature Precipitation Wind Pressure Humidity
    00:00 +15°C° 0 mm 4 mps 760 mmHg 69%
    01:00 +15°C° 0 mm 4 mps 760 mmHg 71%
    02:00 +16°C° 0 mm 3 mps 759 mmHg 74%
    03:00 +14°C° 0 mm 3 mps 759 mmHg 76%
    04:00 +14°C° 0.1 mm 3 mps 759 mmHg 78%
    05:00 +14°C° 0.1 mm 3 mps 759 mmHg 80%
    06:00 +14°C° 0.1 mm 3 mps 759 mmHg 82%
    07:00 +14°C° 0.1 mm 3 mps 759 mmHg 80%
    08:00 +16°C° 0.1 mm 3 mps 759 mmHg 78%
    09:00 +16°C° 0.1 mm 3 mps 759 mmHg 76%
    10:00 +18°C° 0 mm 3 mps 759 mmHg 69%
    11:00 +19°C° 0 mm 3 mps 759 mmHg 63%
    12:00 +20°C° 0 mm 3 mps 759 mmHg 56%
    13:00 +21°C° 0 mm 3 mps 758 mmHg 54%
    14:00 +21°C° 0 mm 3 mps 758 mmHg 51%
    15:00 +22°C° 0 mm 4 mps 758 mmHg 49%
    16:00 +20°C° 0 mm 4 mps 758 mmHg 53%
    17:00 +19°C° 0 mm 3 mps 758 mmHg 58%
    18:00 +18°C° 0 mm 3 mps 758 mmHg 62%
    19:00 +18°C° 0 mm 3 mps 758 mmHg 64%
    20:00 +17°C° 0 mm 3 mps 758 mmHg 67%
    21:00 +17°C° 0 mm 3 mps 758 mmHg 69%
    22:00 +17°C° 0 mm 3 mps 758 mmHg 70%
    23:00 +16°C° 0 mm 3 mps 758 mmHg 70%

    21 October, Sunday

    Time Temperature Precipitation Wind Pressure Humidity
    00:00 +16°C° 0 mm 3 mps 758 mmHg 71%
    01:00 +16°C° 0 mm 3 mps 758 mmHg 72%
    02:00 +16°C° 0 mm 3 mps 758 mmHg 72%
    03:00 +15°C° 0 mm 2 mps 758 mmHg 73%
    04:00 +15°C° 0 mm 2 mps 758 mmHg 74%
    05:00 +15°C° 0 mm 2 mps 758 mmHg 75%
    06:00 +15°C° 0 mm 2 mps 758 mmHg 75%
    07:00 +16°C° 0 mm 2 mps 758 mmHg 72%
    08:00 +16°C° 0 mm 2 mps 758 mmHg 68%
    09:00 +17°C° 0 mm 2 mps 758 mmHg 64%
    10:00 +18°C° 0 mm 2 mps 758 mmHg 59%
    11:00 +19°C° 0 mm 3 mps 758 mmHg 54%
    12:00 +21°C° 0 mm 3 mps 758 mmHg 49%
    13:00 +21°C° 0 mm 4 mps 758 mmHg 48%
    14:00 +21°C° 0 mm 4 mps 758 mmHg 47%
    15:00 +21°C° 0 mm 4 mps 758 mmHg 46%
    16:00 +20°C° 0 mm 4 mps 758 mmHg 50%
    17:00 +19°C° 0 mm 4 mps 758 mmHg 53%
    18:00 +18°C° 0 mm 4 mps 758 mmHg 57%
    19:00 +18°C° 0 mm 4 mps 758 mmHg 59%
    20:00 +17°C° 0 mm 4 mps 758 mmHg 61%
    21:00 +17°C° 0 mm 3 mps 759 mmHg 63%
    22:00 +16°C° 0 mm 3 mps 759 mmHg 65%
    23:00 +16°C° 0 mm 3 mps 759 mmHg 66%
    Show more